DW4362 Weather Reports


time (UTC)temp
F
wind
direction
speed
knots
gust
knots
rain 1hr
in
rain 24hr
in
rain mn
in
humidity
%
barometer
mb
20260505073134 51 211 0.0 0.0 0.00 0.00 0.00 95 1012.4
20260505071633 51 211 0.0 0.0 0.00 0.00 0.00 95 1012.8
20260505064633 51 212 0.0 0.0 0.00 0.00 0.00 94 1013.3
20260505063133 52 211 0.0 0.0 0.00 0.00 0.00 94 1013.4
20260505061633 52 211 0.0 0.0 0.00 0.00 0.00 94 1013.5
20260505060203 52 211 0.0 0.0 0.00 0.00 0.00 94 1013.7
20260505054632 53 211 0.0 0.0 0.00 0.00 0.00 94 1013.8
20260505053132 53 211 0.0 0.0 0.00 0.00 0.00 94 1014.1
20260505051632 53 211 0.0 0.0 0.00 0.00 0.00 93 1013.8
20260505050202 53 211 0.0 0.0 0.00 0.00 0.00 93 1013.7
20260505041702 55 211 0.0 0.0 0.00 0.00 0.00 89 1014.0
20260505034702 56 211 0.0 0.0 0.00 0.00 0.00 88 1014.2
20260505033202 56 211 0.0 0.0 0.00 0.00 0.00 87 1014.1
20260505031703 56 211 0.0 0.0 0.00 0.00 0.00 87 1014.0
20260505030202 57 211 0.0 0.0 0.00 0.00 0.00 84 1013.9
20260505024703 58 211 0.0 0.0 0.00 0.00 0.00 82 1014.0
20260505023202 59 211 0.0 0.0 0.00 0.00 0.00 80 1014.0
20260505020202 61 212 0.0 0.0 0.00 0.00 0.00 74 1014.0
20260505014702 62 211 0.0 0.0 0.00 0.00 0.00 70 1014.0
20260505013202 63 211 0.0 0.0 0.00 0.00 0.00 69 1014.2
20260505011702 64 211 0.0 0.0 0.00 0.00 0.00 67 1014.1
20260505010202 66 151 0.0 0.0 0.00 0.00 0.00 64 1014.0
20260505003202 68 168 0.0 0.0 0.00 0.00 0.00 59 1014.1
20260505001702 69 208 0.0 0.0 0.00 0.00 0.00 56 1014.0
20260505000204 70 210 0.0 1.7 0.00 0.00 0.00 55 1014.0
20260504234702 71 121 2.6 4.3 0.00 0.00 0.00 53 1014.1
20260504231701 72 212 0.0 4.3 0.00 0.00 0.00 48 1013.9
20260504230201 72 141 2.6 7.0 0.00 0.00 0.00 47 1014.0
20260504224701 73 208 5.2 7.8 0.00 0.00 0.00 47 1014.0
20260504223201 73 204 2.6 5.2 0.00 0.00 0.00 45 1014.0
20260504221700 74 170 1.7 2.6 0.00 0.00 0.00 44 1014.1
20260504220200 75 217 2.6 5.2 0.00 0.00 0.00 45 1014.2
20260504214700 77 169 4.3 7.8 0.00 0.00 0.00 40 1014.2
20260504213200 77 200 2.6 4.3 0.00 0.00 0.00 41 1014.1
20260504211700 79 186 4.3 5.2 0.00 0.00 0.00 39 1014.2
20260504210200 79 168 5.2 5.2 0.00 0.00 0.00 39 1014.1
20260504203159 80 254 0.0 4.3 0.00 0.00 0.00 35 1014.1
20260504200159 80 153 5.2 9.6 0.00 0.00 0.00 35 1014.4
20260504194659 80 227 0.0 4.3 0.00 0.00 0.00 33 1014.6
20260504193159 81 124 2.6 4.3 0.00 0.00 0.00 35 1014.7
20260504191659 81 151 5.2 5.2 0.00 0.00 0.00 36 1014.8
20260504190159 80 175 2.6 5.2 0.00 0.00 0.00 35 1015.2
20260504184659 79 163 7.0 7.0 0.00 0.00 0.00 38 1015.4
20260504183159 79 153 1.7 4.3 0.00 0.00 0.00 38 1015.5
20260504181658 80 161 4.3 7.0 0.00 0.00 0.00 37 1015.7
20260504171657 79 153 4.3 4.3 0.00 0.00 0.00 34 1016.3
20260504170157 78 211 5.2 7.8 0.00 0.00 0.00 34 1016.5
20260504160156 76 33 0.0 1.7 0.00 0.00 0.00 39 1017.0
20260504150155 75 84 0.0 0.0 0.00 0.00 0.00 41 1017.4
20260504140154 71 164 0.0 0.0 0.00 0.00 0.00 57 1017.7
20260504130153 55 320 0.0 0.0 0.00 0.00 0.00 95 1017.2
20260504110150 46 322 0.0 0.0 0.00 0.00 0.00 95 1016.5
20260504100148 47 321 0.0 0.0 0.00 0.00 0.00 95 1016.6
20260504081647 48 321 0.0 0.0 0.00 0.00 0.00 94 1016.9
20260504080146 48 321 0.0 0.0 0.00 0.00 0.00 94 1016.9